| time (UTC) | temp C | wind direction | speed KPH | gust KPH | rain 1hr cm | rain 24hr cm | rain mn cm | humidity % | barometer mb |
| 20260901063041 | 26 | 252 | 1.6 | 8.0 | 0.00 | 0.00 | 0.00 | 63 | 1017.0 |
| 20260901061544 | 26 | 229 | 0.0 | 4.8 | 0.00 | 0.00 | 0.00 | 63 | 1017.1 |
| 20260901060044 | 27 | 0 | 0.0 | 3.2 | 0.00 | 0.00 | 0.00 | 62 | 1017.0 |
| 20260901054542 | 27 | 170 | 1.6 | 4.8 | 0.00 | 0.00 | 0.00 | 62 | 1016.9 |
| 20260901053044 | 27 | 173 | 1.6 | 4.8 | 0.00 | 0.00 | 0.00 | 61 | 1016.9 |
| 20260901051543 | 27 | 182 | 0.0 | 4.8 | 0.00 | 0.00 | 0.00 | 60 | 1016.7 |
| 20260901050041 | 27 | 189 | 1.6 | 4.8 | 0.00 | 0.00 | 0.00 | 59 | 1016.7 |
| 20260901044553 | 28 | 180 | 1.6 | 6.4 | 0.00 | 0.00 | 0.00 | 58 | 1016.6 |
| 20260901043042 | 28 | 193 | 1.6 | 6.4 | 0.00 | 0.00 | 0.00 | 57 | 1016.6 |
| 20260901041543 | 29 | 185 | 1.6 | 9.7 | 0.00 | 0.00 | 0.00 | 56 | 1016.5 |
| 20260901040049 | 29 | 165 | 3.2 | 8.0 | 0.00 | 0.00 | 0.00 | 55 | 1016.4 |
| 20260901034542 | 29 | 162 | 3.2 | 8.0 | 0.00 | 0.00 | 0.00 | 55 | 1016.6 |
| 20260901033057 | 29 | 154 | 1.6 | 6.4 | 0.00 | 0.00 | 0.00 | 54 | 1016.5 |
| 20260901031541 | 29 | 161 | 1.6 | 4.8 | 0.00 | 0.00 | 0.00 | 54 | 1016.3 |
| 20260901030037 | 30 | 148 | 1.6 | 8.0 | 0.00 | 0.00 | 0.00 | 54 | 1016.3 |
| 20260901024539 | 29 | 148 | 1.6 | 6.4 | 0.00 | 0.00 | 0.00 | 55 | 1016.3 |
| 20260901023046 | 28 | 136 | 1.6 | 3.2 | 0.00 | 0.00 | 0.00 | 58 | 1016.0 |
| 20260901021559 | 28 | 0 | 0.0 | 1.6 | 0.00 | 0.00 | 0.00 | 59 | 1015.9 |
| 20260901020045 | 28 | 136 | 0.0 | 3.2 | 0.00 | 0.00 | 0.00 | 58 | 1015.7 |
| 20260901014542 | 29 | 0 | 0.0 | 0.0 | 0.00 | 0.00 | 0.00 | 56 | 1015.6 |
| 20260901013051 | 30 | 0 | 0.0 | 0.0 | 0.00 | 0.00 | 0.00 | 55 | 1015.4 |
| 20260901011606 | 30 | 0 | 0.0 | 1.6 | 0.00 | 0.00 | 0.00 | 53 | 1015.1 |
| 20260901010042 | 31 | 0 | 0.0 | 1.6 | 0.00 | 0.00 | 0.00 | 52 | 1015.1 |
| 20260901004547 | 32 | 0 | 0.0 | 0.0 | 0.00 | 0.00 | 0.00 | 50 | 1015.1 |
| 20260901003046 | 32 | 0 | 0.0 | 1.6 | 0.00 | 0.00 | 0.00 | 48 | 1015.0 |
| 20260901001541 | 33 | 0 | 0.0 | 1.6 | 0.00 | 0.00 | 0.00 | 46 | 1015.0 |
| 20260901000045 | 34 | 136 | 1.6 | 4.8 | 0.00 | 0.00 | 0.00 | 44 | 1015.0 |
| 20260831234556 | 35 | 136 | 1.6 | 8.0 | 0.00 | 0.00 | 0.00 | 42 | 1015.0 |
| 20260831233044 | 35 | 154 | 1.6 | 6.4 | 0.00 | 0.00 | 0.00 | 40 | 1014.9 |
| 20260831231542 | 36 | 144 | 1.6 | 9.7 | 0.00 | 0.00 | 0.00 | 38 | 1014.8 |
| 20260831230039 | 36 | 157 | 3.2 | 11.3 | 0.00 | 0.00 | 0.00 | 36 | 1014.7 |
| 20260831224546 | 36 | 206 | 1.6 | 11.3 | 0.00 | 0.00 | 0.00 | 35 | 1014.9 |
| 20260831223046 | 37 | 161 | 3.2 | 9.7 | 0.00 | 0.00 | 0.00 | 35 | 1014.9 |
| 20260831221559 | 37 | 135 | 3.2 | 12.9 | 0.00 | 0.00 | 0.00 | 35 | 1015.0 |
| 20260831220039 | 37 | 207 | 4.8 | 12.9 | 0.00 | 0.00 | 0.00 | 33 | 1015.1 |
| 20260831214547 | 37 | 153 | 6.4 | 12.9 | 0.00 | 0.00 | 0.00 | 34 | 1015.1 |
| 20260831213041 | 37 | 137 | 4.8 | 14.5 | 0.00 | 0.00 | 0.00 | 33 | 1015.1 |
| 20260831211546 | 37 | 157 | 4.8 | 12.9 | 0.00 | 0.00 | 0.00 | 33 | 1015.2 |
| 20260831210044 | 37 | 0 | 3.2 | 16.1 | 0.00 | 0.00 | 0.00 | 33 | 1015.3 |
| 20260831204544 | 37 | 322 | 3.2 | 14.5 | 0.00 | 0.00 | 0.00 | 33 | 1015.5 |
| 20260831203049 | 37 | 159 | 4.8 | 11.3 | 0.00 | 0.00 | 0.00 | 33 | 1015.6 |
| 20260831201547 | 37 | 185 | 6.4 | 16.1 | 0.00 | 0.00 | 0.00 | 32 | 1015.8 |
| 20260831200047 | 37 | 185 | 3.2 | 9.7 | 0.00 | 0.00 | 0.00 | 33 | 1016.1 |
| 20260831194542 | 37 | 170 | 4.8 | 14.5 | 0.00 | 0.00 | 0.00 | 33 | 1016.1 |
| 20260831193040 | 37 | 146 | 3.2 | 9.7 | 0.00 | 0.00 | 0.00 | 34 | 1016.2 |
| 20260831191538 | 37 | 176 | 4.8 | 11.3 | 0.00 | 0.00 | 0.00 | 34 | 1016.3 |
| 20260831190056 | 37 | 181 | 4.8 | 12.9 | 0.00 | 0.00 | 0.00 | 34 | 1016.6 |
| 20260831184541 | 37 | 257 | 3.2 | 11.3 | 0.00 | 0.00 | 0.00 | 34 | 1016.8 |
| 20260831183041 | 37 | 167 | 3.2 | 16.1 | 0.00 | 0.00 | 0.00 | 36 | 1017.0 |
| 20260831181544 | 36 | 248 | 3.2 | 12.9 | 0.00 | 0.00 | 0.00 | 36 | 1017.1 |
| 20260831180054 | 36 | 217 | 1.6 | 12.9 | 0.00 | 0.00 | 0.00 | 38 | 1017.3 |
| 20260831174546 | 36 | 202 | 1.6 | 14.5 | 0.00 | 0.00 | 0.00 | 39 | 1017.2 |
| 20260831173041 | 36 | 231 | 3.2 | 11.3 | 0.00 | 0.00 | 0.00 | 39 | 1017.6 |
| 20260831171541 | 35 | 240 | 4.8 | 16.1 | 0.00 | 0.00 | 0.00 | 41 | 1017.7 |
| 20260831170037 | 35 | 133 | 3.2 | 17.7 | 0.00 | 0.00 | 0.00 | 44 | 1018.0 |
| 20260831164543 | 35 | 155 | 1.6 | 12.9 | 0.00 | 0.00 | 0.00 | 47 | 1018.0 |
| 20260831163043 | 34 | 348 | 3.2 | 17.7 | 0.00 | 0.00 | 0.00 | 48 | 1018.2 |
| 20260831161547 | 33 | 141 | 3.2 | 11.3 | 0.00 | 0.00 | 0.00 | 49 | 1018.1 |
| 20260831160043 | 33 | 192 | 1.6 | 11.3 | 0.00 | 0.00 | 0.00 | 50 | 1018.0 |
| 20260831154604 | 32 | 0 | 3.2 | 17.7 | 0.00 | 0.00 | 0.00 | 53 | 1018.2 |
| 20260831153042 | 32 | 169 | 3.2 | 12.9 | 0.00 | 0.00 | 0.00 | 54 | 1018.2 |
| 20260831151540 | 31 | 178 | 4.8 | 17.7 | 0.00 | 0.00 | 0.00 | 54 | 1018.3 |
| 20260831150045 | 31 | 175 | 4.8 | 16.1 | 0.00 | 0.00 | 0.00 | 56 | 1018.1 |
| 20260831144549 | 30 | 180 | 3.2 | 17.7 | 0.00 | 0.00 | 0.00 | 57 | 1018.2 |
| 20260831143040 | 30 | 147 | 3.2 | 22.5 | 0.00 | 0.00 | 0.00 | 59 | 1018.1 |
| 20260831141609 | 28 | 212 | 1.6 | 14.5 | 0.00 | 0.00 | 0.00 | 61 | 1018.0 |
| 20260831140041 | 28 | 128 | 1.6 | 11.3 | 0.00 | 0.00 | 0.00 | 63 | 1018.0 |
| 20260831134546 | 27 | 0 | 1.6 | 12.9 | 0.00 | 0.00 | 0.00 | 64 | 1018.0 |
| 20260831133044 | 26 | 239 | 0.0 | 9.7 | 0.00 | 0.00 | 0.00 | 66 | 1017.9 |
| 20260831131539 | 25 | 191 | 0.0 | 6.4 | 0.00 | 0.00 | 0.00 | 67 | 1017.8 |
| 20260831130039 | 25 | 0 | 0.0 | 4.8 | 0.00 | 0.00 | 0.00 | 69 | 1017.8 |
| 20260831124549 | 24 | 0 | 0.0 | 9.7 | 0.00 | 0.00 | 0.00 | 70 | 1017.6 |
| 20260831123044 | 23 | 0 | 0.0 | 11.3 | 0.00 | 0.00 | 0.00 | 71 | 1017.3 |
| 20260831121538 | 23 | 204 | 1.6 | 6.4 | 0.00 | 0.00 | 0.00 | 71 | 1017.1 |
| 20260831120043 | 23 | 0 | 0.0 | 3.2 | 0.00 | 0.00 | 0.00 | 71 | 1016.8 |
| 20260831114541 | 23 | 203 | 0.0 | 3.2 | 0.00 | 0.00 | 0.00 | 71 | 1016.4 |
| 20260831113044 | 23 | 0 | 0.0 | 8.0 | 0.00 | 0.00 | 0.00 | 71 | 1016.3 |
| 20260831111540 | 23 | 0 | 0.0 | 8.0 | 0.00 | 0.00 | 0.00 | 70 | 1016.2 |
| 20260831110045 | 23 | 190 | 0.0 | 4.8 | 0.00 | 0.00 | 0.00 | 70 | 1016.1 |
| 20260831104543 | 23 | 0 | 0.0 | 4.8 | 0.00 | 0.00 | 0.00 | 69 | 1016.1 |
| 20260831103041 | 23 | 174 | 1.6 | 4.8 | 0.00 | 0.00 | 0.00 | 69 | 1015.9 |
| 20260831101550 | 23 | 206 | 0.0 | 6.4 | 0.00 | 0.00 | 0.00 | 69 | 1015.9 |
| 20260831100047 | 23 | 0 | 1.6 | 6.4 | 0.00 | 0.00 | 0.00 | 68 | 1015.9 |
| 20260831094546 | 24 | 180 | 0.0 | 4.8 | 0.00 | 0.00 | 0.00 | 68 | 1015.9 |
| 20260831093044 | 24 | 160 | 1.6 | 6.4 | 0.00 | 0.00 | 0.00 | 67 | 1015.8 |
| 20260831091557 | 24 | 161 | 1.6 | 8.0 | 0.00 | 0.00 | 0.00 | 67 | 1015.8 |
| 20260831090046 | 24 | 167 | 3.2 | 8.0 | 0.00 | 0.00 | 0.00 | 67 | 1015.7 |
| 20260831084543 | 24 | 176 | 1.6 | 6.4 | 0.00 | 0.00 | 0.00 | 67 | 1015.8 |
| 20260831083041 | 24 | 0 | 0.0 | 8.0 | 0.00 | 0.00 | 0.00 | 67 | 1015.8 |
| 20260831081548 | 24 | 167 | 1.6 | 6.4 | 0.00 | 0.00 | 0.00 | 67 | 1015.7 |
| 20260831080105 | 25 | 158 | 1.6 | 6.4 | 0.00 | 0.00 | 0.00 | 67 | 1015.5 |
| 20260831074541 | 25 | 192 | 0.0 | 6.4 | 0.00 | 0.00 | 0.00 | 66 | 1015.5 |
| 20260831073109 | 25 | 190 | 0.0 | 4.8 | 0.00 | 0.00 | 0.00 | 66 | 1015.7 |
| 20260831071551 | 25 | 150 | 1.6 | 6.4 | 0.00 | 0.00 | 0.00 | 65 | 1015.7 |
| 20260831070046 | 25 | 164 | 0.0 | 8.0 | 0.00 | 0.00 | 0.00 | 64 | 1015.8 |
| 20260831064545 | 26 | 162 | 3.2 | 8.0 | 0.00 | 0.00 | 0.00 | 64 | 1015.7 |